Weather History for KFNT - February, 2015

Change the Weather History Date:

Saturday, February 14, 2015

  Actual Average Record
Temperature  
Mean Temperature 10 °F 24 °F  
Max Temperature 22 °F 32 °F 52 °F (1939)
Min Temperature -2 °F 17 °F -8 °F (1978)
Degree Days  
Heating Degree Days 55 41  
Month to date heating degree days 663 582  
Since 1 July heating degree days 4475 4546  
Cooling Degree Days 0 0  
Month to date cooling degree days 0 0  
Year to date cooling degree days 0 0  
Moisture  
Dew Point 6 °F    
Average Humidity 67    
Maximum Humidity 86    
Minimum Humidity 31    
Precipitation  
Precipitation 0.08 in 0.06 in 1.60 in (1950)
Month to date precipitation 0.77 0.69  
Year to date precipitation 2.07 2.32  
Snow  
Snow 2.30 in 0.40 in 3.50 in (1991)
Month to date snowfall 15.1 5.6  
Since 1 July snowfall 38.2 33.4  
Snow Depth 9.00 in    
Sea Level Pressure  
Sea Level Pressure 29.82 in    
Wind  
Wind Speed 17 mph (NW)    
Max Wind Speed 32 mph    
Max Gust Speed 42 mph    
Visibility 4 miles    
Events Snow    
T = Trace of Precipitation, MM = Missing Value Source: NWS Daily Summary

Daily Weather History Graph

Daily Weather History Graph

Search for Another Location

Airport or City:

Trip Planner

Search our weather history database for the weather conditions in past years. The results will help you decide how hot, cold, wet, or windy it might be!

Date:

Astronomy

Feb. 14, 2015 Rise Set
Actual Time 7:34 AM EST 6:04 PM EST
Civil Twilight 7:04 AM EST 6:33 PM EST
Nautical Twilight 6:31 AM EST 7:07 PM EST
Astronomical Twilight 5:58 AM EST 7:40 PM EST
Moon 3:38 AM EST (2/14) 1:34 PM EST (2/14)
Length of Visible Light 11h 29m
Length of Day
10h 30m
Waning Crescent, 24% of the Moon is Illuminated
Feb 14
Waning Crescent
Feb 18
New
Feb 25
First Quarter
Mar 5
Full
Mar 13
Last Quarter

Hourly Weather History & Observations

Time (EST) Temp. Windchill Dew Point Humidity Pressure Visibility Wind Dir Wind Speed Gust Speed Precip Events Conditions
12:25 AM 21.0 °F 10.6 °F 16.0 °F 81% 29.79 in 2.5 mi WSW 9.2 mph - 0.00 in Snow Light Snow
12:53 AM 21.0 °F 9.3 °F 16.0 °F 81% 29.81 in 3.0 mi WSW 11.5 mph - 0.01 in Snow Light Snow
1:00 AM 21.0 °F 9.9 °F 16.0 °F 81% 29.76 in 2.5 mi WSW 10.4 mph - 0.00 in Snow Light Snow
1:10 AM 21.9 °F 11.0 °F 16.0 °F 78% 29.76 in 3.0 mi WSW 10.4 mph - 0.00 in Snow Light Snow
1:30 AM 21.9 °F 11.7 °F 16.0 °F 78% 29.75 in 2.5 mi WSW 9.2 mph - 0.00 in Snow Light Snow
1:43 AM 21.9 °F 11.0 °F 16.0 °F 78% 29.74 in 3.0 mi WSW 10.4 mph - 0.00 in Snow Light Snow
1:48 AM 21.2 °F 10.9 °F 17.6 °F 86% 29.74 in 2.5 mi SW 9.2 mph - 0.00 in Snow Light Snow
1:53 AM 21.9 °F 11.7 °F 17.1 °F 82% 29.78 in 2.5 mi WSW 9.2 mph - 0.00 in Snow Light Snow
2:13 AM 21.9 °F 12.5 °F 17.1 °F 82% 29.73 in 1.8 mi WSW 8.1 mph - 0.00 in Snow Light Snow
2:53 AM 21.9 °F 13.4 °F 17.1 °F 82% 29.75 in 1.0 mi West 6.9 mph - 0.01 in Snow Light Snow
3:15 AM 21.0 °F 13.4 °F 17.1 °F 85% 29.69 in 1.8 mi West 5.8 mph - 0.00 in Snow Light Snow
3:27 AM 21.0 °F 13.4 °F 17.1 °F 85% 29.69 in 1.8 mi West 5.8 mph - 0.01 in Snow Light Snow
3:46 AM 21.0 °F 14.6 °F 17.1 °F 85% 29.68 in 2.0 mi West 4.6 mph - 0.01 in Snow Light Snow
3:53 AM 21.0 °F 13.4 °F 17.1 °F 85% 29.71 in 2.5 mi WSW 5.8 mph - 0.01 in Snow Light Snow
4:12 AM 21.0 °F 14.6 °F 17.1 °F 85% 29.67 in 3.0 mi WSW 4.6 mph - 0.00 in Snow Light Snow
4:28 AM 21.0 °F 14.6 °F 17.1 °F 85% 29.66 in 2.5 mi West 4.6 mph - 0.00 in Snow Light Snow
4:41 AM 21.0 °F 12.4 °F 17.1 °F 85% 29.66 in 1.8 mi West 6.9 mph - 0.00 in Snow Light Snow
4:53 AM 21.9 °F 12.5 °F 17.1 °F 82% 29.70 in 2.5 mi West 8.1 mph - 0.00 in Snow Light Snow
5:08 AM 21.9 °F 13.4 °F 17.1 °F 82% 29.65 in 1.5 mi West 6.9 mph - 0.01 in Snow Light Snow
5:23 AM 21.9 °F 10.4 °F 17.1 °F 82% 29.66 in 2.0 mi West 11.5 mph - 0.01 in Snow Light Snow
5:53 AM 21.0 °F 7.6 °F 15.1 °F 78% 29.69 in 2.5 mi NW 15.0 mph - 0.01 in Snow Light Snow
6:53 AM 19.4 °F 6.6 °F 12.2 °F 74% 29.64 in 2.5 mi WNW 12.7 mph - N/A Snow Light Snow
7:00 AM 19.9 °F 6.7 °F 12.9 °F 74% 29.64 in 2.0 mi NW 13.8 mph - 0.00 in Snow Light Snow
7:21 AM 19.0 °F 9.0 °F 12.9 °F 77% 29.64 in 1.8 mi NW 8.1 mph - 0.00 in Snow Light Snow
7:31 AM 19.4 °F 7.9 °F 12.2 °F 74% 29.64 in 2.5 mi NW 10.4 mph - N/A Snow Light Snow
7:48 AM 19.4 °F 10.4 °F 12.2 °F 74% 29.64 in 2.5 mi NW 6.9 mph - 0.00 in Snow Light Snow
7:53 AM 19.0 °F 9.0 °F 12.9 °F 77% 29.68 in 1.2 mi NW 8.1 mph - 0.00 in Snow Light Snow
7:55 AM 19.0 °F 8.2 °F 12.9 °F 77% 29.64 in 1.0 mi NNW 9.2 mph - 0.00 in Snow Light Snow
8:53 AM 15.1 °F 1.1 °F 9.0 °F 77% 29.70 in 1.0 mi North 12.7 mph 20.7 mph 0.01 in Snow Light Snow
9:25 AM 15.1 °F -3.3 °F 7.0 °F 70% 29.67 in 2.0 mi North 23.0 mph 29.9 mph 0.00 in Snow Light Snow
9:53 AM 15.1 °F -1.1 °F 6.1 °F 68% 29.73 in 1.2 mi NNW 17.3 mph - 0.00 in Snow Light Snow
10:53 AM 12.9 °F -3.9 °F 3.9 °F 67% 29.76 in 1.2 mi North 17.3 mph 24.2 mph 0.00 in Snow Light Snow
11:14 AM 12.9 °F -4.4 °F 3.0 °F 65% 29.72 in 2.0 mi North 18.4 mph 26.5 mph 0.00 in Snow Light Snow
11:53 AM 12.9 °F -5.3 °F -0.0 °F 56% 29.79 in 2.0 mi North 20.7 mph - 0.00 in Snow Light Snow
12:00 PM 12.9 °F -3.4 °F 1.9 °F 62% 29.75 in 4.0 mi NNW 16.1 mph 25.3 mph 0.00 in Snow Light Snow
12:53 PM 14.0 °F -6.2 °F -2.9 °F 47% 29.81 in 7.0 mi NNW 27.6 mph 36.8 mph 0.00 in   Overcast
12:59 PM 12.9 °F -7.6 °F -2.9 °F 49% 29.77 in 1.8 mi NNW 27.6 mph 39.1 mph N/A   Overcast
1:07 PM 12.9 °F -5.3 °F -4.0 °F 47% 29.77 in 7.0 mi NW 20.7 mph 38.0 mph N/A   Overcast
1:51 PM 12.2 °F -6.7 °F 1.4 °F 62% 29.79 in 1.0 mi NNW 21.9 mph 36.8 mph 0.00 in Snow Light Snow
1:53 PM 12.0 °F -6.0 °F 1.0 °F 61% 29.84 in 1.0 mi NNW 19.6 mph 33.4 mph 0.00 in Snow Light Snow
2:24 PM 12.9 °F -6.1 °F -2.9 °F 49% 29.80 in 3.0 mi NW 23.0 mph 35.7 mph 0.00 in Snow Blowing Snow
2:53 PM 10.9 °F -10.6 °F -2.9 °F 54% 29.87 in 3.0 mi NW 28.8 mph 42.6 mph 0.00 in Snow Blowing Snow
3:00 PM 12.0 °F -8.8 °F -2.0 °F 53% 29.83 in 1.8 mi NW 27.6 mph 40.3 mph N/A Snow Blowing Snow
3:27 PM 10.0 °F -11.1 °F -4.0 °F 53% 29.86 in 5.0 mi NW 26.5 mph 36.8 mph 0.00 in Snow Blowing Snow
3:40 PM 10.0 °F -10.4 °F -2.9 °F 56% 29.87 in 5.0 mi NW 24.2 mph 36.8 mph 0.00 in Snow Light Snow
3:53 PM 10.9 °F -9.6 °F -4.0 °F 51% 29.93 in 5.0 mi NW 25.3 mph 40.3 mph 0.00 in Snow Blowing Snow
4:23 PM 9.0 °F -13.3 °F -2.9 °F 59% 29.91 in 1.8 mi NW 28.8 mph 38.0 mph N/A Snow Blowing Snow
4:31 PM 10.0 °F -11.9 °F -4.0 °F 53% 29.91 in 5.0 mi NNW 28.8 mph 34.5 mph 0.00 in Snow Blowing Snow
4:53 PM 9.0 °F -11.0 °F -7.1 °F 48% 29.99 in 5.0 mi NNW 21.9 mph 28.8 mph 0.00 in   Haze
5:53 PM 6.1 °F -15.2 °F -7.1 °F 55% 30.07 in 8.0 mi NW 23.0 mph 29.9 mph N/A   Overcast
6:53 PM 3.9 °F -15.6 °F -8.0 °F 58% 30.14 in 10.0 mi NNW 17.3 mph 29.9 mph N/A   Mostly Cloudy
7:53 PM 3.0 °F -16.1 °F -9.9 °F 55% 30.19 in 10.0 mi NNW 16.1 mph - N/A   Clear
8:40 PM 1.9 °F -15.5 °F -9.9 °F 58% 30.18 in 10.0 mi NNW 12.7 mph - N/A   Overcast
8:53 PM 1.9 °F -14.7 °F -9.0 °F 60% 30.25 in 10.0 mi NNW 11.5 mph - N/A   Mostly Cloudy
9:24 PM 1.9 °F -17.5 °F -9.9 °F 58% 30.20 in 10.0 mi NW 16.1 mph - N/A   Partly Cloudy
9:53 PM 1.0 °F -21.4 °F -11.9 °F 55% 30.28 in 10.0 mi NNW 21.9 mph - N/A   Clear
10:53 PM -0.0 °F -18.0 °F -13.0 °F 54% 30.31 in 10.0 mi NNW 12.7 mph - N/A   Clear
11:53 PM -0.9 °F -19.1 °F -14.1 °F 54% 30.33 in 10.0 mi NNW 12.7 mph - N/A   Clear